When you browse on this site, cookies collect data to enhance your experience and personalize the content and advertising you see.
Visit our Privacy Policy to learn more. By continuing to use the site, you agree to this use of cookies and data.

Hourly Weather Pszczyna

Today, 2 July, Thursday

Time Temperature Precipitation Wind Pressure Humidity
00:00 +21°C° 0.2 mm 2 mps 735 mmHg 77%
01:00 +21°C° 0 mm 2 mps 735 mmHg 79%
02:00 +21°C° 0.1 mm 2 mps 735 mmHg 79%
03:00 +21°C° 0.1 mm 2 mps 735 mmHg 78%
04:00 +21°C° 0.1 mm 2 mps 735 mmHg 78%
05:00 +22°C° 0.6 mm 1 mps 735 mmHg 80%
06:00 +22°C° 0.6 mm 1 mps 735 mmHg 82%
07:00 +21°C° 0 mm 2 mps 736 mmHg 79%
08:00 +23°C° 0 mm 2 mps 736 mmHg 75%
09:00 +24°C° 0 mm 2 mps 736 mmHg 72%
10:00 +25°C° 0 mm 1 mps 736 mmHg 69%
11:00 +27°C° 0.1 mm 1 mps 736 mmHg 63%
12:00 +28°C° 0.1 mm 1 mps 736 mmHg 58%
13:00 +30°C° 0.1 mm 1 mps 736 mmHg 52%
14:00 +29°C° 0.3 mm 2 mps 736 mmHg 54%
15:00 +29°C° 0.3 mm 2 mps 736 mmHg 56%
16:00 +29°C° 0.3 mm 2 mps 735 mmHg 59%
17:00 +27°C° 0.9 mm 2 mps 736 mmHg 65%
18:00 +26°C° 0.9 mm 2 mps 736 mmHg 71%
19:00 +25°C° 0.9 mm 1 mps 736 mmHg 77%
20:00 +24°C° 0.9 mm 1 mps 736 mmHg 79%
21:00 +23°C° 0.9 mm 1 mps 736 mmHg 81%
22:00 +20°C° 0.9 mm 0 mps 736 mmHg 83%
23:00 +22°C° 0.3 mm 1 mps 736 mmHg 85%

Tomorrow, 3 July, Friday

Time Temperature Precipitation Wind Pressure Humidity
00:00 +21°C° 0.3 mm 1 mps 736 mmHg 86%
01:00 +21°C° 0.3 mm 1 mps 736 mmHg 88%
02:00 +20°C° 0.4 mm 1 mps 736 mmHg 88%
03:00 +20°C° 0.4 mm 1 mps 736 mmHg 89%
04:00 +20°C° 0.4 mm 1 mps 735 mmHg 89%
05:00 +20°C° 1.3 mm 2 mps 736 mmHg 88%
06:00 +20°C° 1.3 mm 2 mps 736 mmHg 87%
07:00 +20°C° 1.3 mm 2 mps 736 mmHg 86%
08:00 +20°C° 0.4 mm 3 mps 737 mmHg 84%
09:00 +21°C° 0.4 mm 3 mps 737 mmHg 83%
10:00 +21°C° 0.4 mm 3 mps 738 mmHg 82%
11:00 +21°C° 0.3 mm 3 mps 738 mmHg 82%
12:00 +20°C° 0.3 mm 3 mps 738 mmHg 83%
13:00 +20°C° 0.3 mm 2 mps 738 mmHg 83%
14:00 +21°C° 0.3 mm 2 mps 738 mmHg 80%
15:00 +21°C° 0.3 mm 2 mps 738 mmHg 77%
16:00 +23°C° 0.3 mm 2 mps 738 mmHg 74%
17:00 +23°C° 0.2 mm 2 mps 738 mmHg 75%
18:00 +22°C° 0.2 mm 1 mps 739 mmHg 77%
19:00 +21°C° 0.2 mm 1 mps 739 mmHg 78%
20:00 +20°C° 0.1 mm 1 mps 739 mmHg 79%
21:00 +19°C° 0.1 mm 1 mps 740 mmHg 80%
22:00 +18°C° 0.1 mm 1 mps 740 mmHg 81%
23:00 +18°C° 0 mm 1 mps 740 mmHg 82%

Day after tomorrow, 4 July, Saturday

Time Temperature Precipitation Wind Pressure Humidity
00:00 +16°C° 0 mm 1 mps 740 mmHg 83%
01:00 +16°C° 0 mm 1 mps 740 mmHg 84%
02:00 +15°C° 0 mm 1 mps 740 mmHg 84%
03:00 +15°C° 0 mm 1 mps 740 mmHg 85%
04:00 +15°C° 0 mm 1 mps 740 mmHg 86%
05:00 +16°C° 0 mm 1 mps 741 mmHg 82%
06:00 +18°C° 0 mm 1 mps 741 mmHg 78%
07:00 +20°C° 0 mm 1 mps 741 mmHg 74%
08:00 +21°C° 0 mm 1 mps 741 mmHg 68%
09:00 +23°C° 0 mm 1 mps 741 mmHg 61%
10:00 +24°C° 0 mm 1 mps 741 mmHg 54%
11:00 +25°C° 0 mm 1 mps 741 mmHg 51%
12:00 +26°C° 0 mm 1 mps 741 mmHg 48%
13:00 +26°C° 0 mm 1 mps 741 mmHg 45%
14:00 +26°C° 0 mm 1 mps 740 mmHg 46%
15:00 +26°C° 0 mm 1 mps 740 mmHg 47%
16:00 +26°C° 0 mm 2 mps 740 mmHg 48%
17:00 +25°C° 0 mm 1 mps 740 mmHg 53%
18:00 +24°C° 0 mm 1 mps 740 mmHg 58%
19:00 +23°C° 0 mm 1 mps 740 mmHg 64%
20:00 +22°C° 0 mm 1 mps 740 mmHg 66%
21:00 +20°C° 0 mm 1 mps 740 mmHg 69%
22:00 +19°C° 0 mm 1 mps 740 mmHg 72%
23:00 +19°C° 0 mm 1 mps 740 mmHg 73%

5 July, Sunday

Time Temperature Precipitation Wind Pressure Humidity
00:00 +18°C° 0 mm 1 mps 740 mmHg 75%
01:00 +18°C° 0 mm 1 mps 740 mmHg 77%
02:00 +18°C° 0 mm 1 mps 740 mmHg 78%
03:00 +16°C° 0 mm 1 mps 740 mmHg 79%
04:00 +16°C° 0 mm 1 mps 740 mmHg 81%
05:00 +19°C° 0 mm 1 mps 740 mmHg 76%
06:00 +19°C° 0 mm 2 mps 740 mmHg 72%
07:00 +21°C° 0 mm 2 mps 740 mmHg 68%
08:00 +23°C° 0 mm 2 mps 740 mmHg 63%
09:00 +25°C° 0 mm 2 mps 740 mmHg 59%
10:00 +26°C° 0 mm 3 mps 740 mmHg 54%
11:00 +27°C° 0 mm 3 mps 739 mmHg 54%
12:00 +27°C° 0 mm 3 mps 739 mmHg 53%
13:00 +28°C° 0 mm 4 mps 739 mmHg 53%
14:00 +28°C° 0 mm 4 mps 738 mmHg 55%
15:00 +28°C° 0 mm 4 mps 738 mmHg 56%
16:00 +28°C° 0 mm 4 mps 738 mmHg 58%
17:00 +26°C° 0.1 mm 3 mps 738 mmHg 64%
18:00 +25°C° 0.1 mm 3 mps 738 mmHg 70%
19:00 +24°C° 0.1 mm 2 mps 738 mmHg 76%
20:00 +23°C° 0 mm 2 mps 738 mmHg 78%
21:00 +21°C° 0 mm 2 mps 738 mmHg 81%
22:00 +20°C° 0 mm 2 mps 738 mmHg 84%
23:00 +19°C° 0 mm 2 mps 738 mmHg 85%

6 July, Monday

Time Temperature Precipitation Wind Pressure Humidity
00:00 +19°C° 0 mm 3 mps 738 mmHg 86%
01:00 +19°C° 0 mm 3 mps 738 mmHg 87%
02:00 +19°C° 0 mm 3 mps 738 mmHg 88%
03:00 +18°C° 0 mm 3 mps 738 mmHg 88%
04:00 +18°C° 0 mm 3 mps 738 mmHg 89%
05:00 +19°C° 0 mm 3 mps 738 mmHg 85%
06:00 +21°C° 0 mm 3 mps 737 mmHg 80%
07:00 +22°C° 0 mm 4 mps 737 mmHg 75%
08:00 +23°C° 0 mm 4 mps 737 mmHg 71%
09:00 +25°C° 0 mm 4 mps 737 mmHg 67%
10:00 +26°C° 0 mm 5 mps 737 mmHg 63%
11:00 +27°C° 0 mm 5 mps 737 mmHg 60%
12:00 +28°C° 0 mm 5 mps 737 mmHg 57%
13:00 +28°C° 0 mm 5 mps 736 mmHg 55%
14:00 +28°C° 0 mm 5 mps 736 mmHg 55%
15:00 +28°C° 0 mm 5 mps 736 mmHg 55%
16:00 +28°C° 0 mm 4 mps 736 mmHg 55%
17:00 +27°C° 0.1 mm 4 mps 736 mmHg 62%
18:00 +25°C° 0.1 mm 3 mps 736 mmHg 69%
19:00 +24°C° 0.1 mm 3 mps 736 mmHg 75%
20:00 +23°C° 0 mm 2 mps 737 mmHg 77%
21:00 +21°C° 0 mm 2 mps 737 mmHg 79%
22:00 +21°C° 0 mm 1 mps 737 mmHg 81%
23:00 +19°C° 0 mm 2 mps 738 mmHg 81%

7 July, Tuesday

Time Temperature Precipitation Wind Pressure Humidity
00:00 +19°C° 0 mm 2 mps 738 mmHg 80%
01:00 +19°C° 0 mm 3 mps 738 mmHg 79%
02:00 +18°C° 0.1 mm 3 mps 739 mmHg 78%
03:00 +17°C° 0.1 mm 2 mps 739 mmHg 76%
04:00 +16°C° 0.1 mm 2 mps 739 mmHg 75%
05:00 +16°C° 0.4 mm 2 mps 739 mmHg 78%
06:00 +15°C° 0.4 mm 2 mps 740 mmHg 80%
07:00 +15°C° 0.4 mm 2 mps 740 mmHg 83%
08:00 +16°C° 0.1 mm 2 mps 740 mmHg 77%
09:00 +17°C° 0.1 mm 2 mps 741 mmHg 71%
10:00 +18°C° 0.1 mm 3 mps 741 mmHg 65%
11:00 +18°C° 0.1 mm 3 mps 741 mmHg 63%
12:00 +18°C° 0.1 mm 3 mps 741 mmHg 61%
13:00 +18°C° 0.1 mm 3 mps 741 mmHg 59%
14:00 +18°C° 0.1 mm 3 mps 741 mmHg 60%
15:00 +18°C° 0.1 mm 3 mps 741 mmHg 60%
16:00 +18°C° 0.1 mm 3 mps 741 mmHg 61%
17:00 +18°C° 0.1 mm 3 mps 741 mmHg 65%
18:00 +17°C° 0.1 mm 3 mps 741 mmHg 69%
19:00 +16°C° 0.1 mm 2 mps 741 mmHg 74%
20:00 +15°C° 0.1 mm 2 mps 742 mmHg 75%
21:00 +15°C° 0.1 mm 2 mps 742 mmHg 77%
22:00 +13°C° 0.1 mm 3 mps 742 mmHg 79%
23:00 +13°C° 0 mm 2 mps 742 mmHg 80%
Show more